{"data":{"norad_id":59676,"epoch":"2026-05-24T20:46:21.828288Z","epoch_age_seconds":86582,"freshness":"FRESH","line1":"1 59676U 24084Y   26144.86553042  .00010076  00000+0  37512-3 0  9995","line2":"2 59676  43.0005 331.5824 0001750 278.3746  81.6908 15.27584356116021","mean_motion":15.27584356,"eccentricity":0.000175,"inclination_deg":43.0005,"raan_deg":331.5824,"arg_perigee_deg":278.3746,"mean_anomaly_deg":81.6908,"bstar":0.00037512,"rev_number":11602,"period_min":94.266479906266,"perigee_km":481.83534735537,"apogee_km":484.2367579238,"semimajor_km":6861.1730526396,"source":"CELESTRAK","updated_at":"2026-05-25T13:38:19.022563Z"}}